Lid_Strength_Index
1 2 3 5 10 10 12 12 10 10 9 8 9 10 8 9 7 8 2 1 0 0 -1 -1 -1 -1 -1 -1 -1 -1 -1 -1 -1 -1 -1 -1 -1 -1 -1 -1 -1 -1 -1 -1 -1 -1 -1 -1 -1
3 2 4 8 12 14 13 12 11 10 8 8 8 10 10 10 4 4 3 1 0 0 -0 -1 -1 -1 -1 -1 -1 -1 -1 -1 -1 -1 -1 -1 -1 -1 -1 -1 -1 -1 -1 -1 -1 -1 -1 -1 -1
2 2 5 8 12 13 13 12 10 9 8 8 8 9 9 7 3 3 1 1 -0 0 -1 -1 -1 -1 -1 -1 -1 -1 -1 -1 -1 -1 -1 -1 -1 -1 -1 -1 -1 -1 -1 -1 -1 -1 -1 -1 -1
3 3 5 10 11 11 11 11 9 9 8 8 8 8 7 2 3 2 0 0 0 0 -1 -1 -1 -1 -1 -1 -1 -1 -1 -1 -1 -1 -1 -1 -1 -1 -1 -1 -1 -1 -1 -1 -1 -1 -1 -1 -1
4 5 9 10 10 9 9 8 8 9 9 8 8 9 8 3 1 1 1 1 1 0 -0 -1 -1 -1 -1 -1 -1 -1 -1 -1 -1 -1 -1 -1 -1 -1 -1 -1 -1 -1 -1 -1 -1 -1 -2 -2 -2
6 6 11 12 11 9 8 7 8 9 8 8 8 8 7 2 2 2 1 1 0 0 -0 -0 -1 -1 -1 -1 -1 -1 -1 -1 -1 -1 -1 -1 -1 -1 -1 -1 -1 -1 -1 -2 -1 -1 -2 -2 -2
8 8 12 12 11 11 9 8 9 9 9 8 7 9 7 3 2 2 1 0 0 -0 -0 -0 -1 -1 -1 -1 -1 -1 -1 -1 -1 -1 -1 -1 -1 -1 -1 -1 -1 -1 -1 -2 -1 -2 -2 -2 -2
8 9 13 12 12 12 9 9 9 9 9 6 7 8 8 3 2 2 2 2 1 0 0 0 -0 -1 -1 -1 -1 -1 -1 -1 -1 -1 -1 -1 -1 -1 -1 -1 -1 -1 -1 -1 -2 -2 -2 -2 -2
10 11 13 13 13 12 9 10 8 7 8 8 7 7 6 2 1 2 2 4 2 1 1 0 0 -0 -1 -1 -1 -1 -1 -1 -1 -1 -1 -1 -1 -1 -1 -1 -1 -1 -1 -1 -1 -1 -2 -2 -1
10 12 13 11 11 11 10 9 9 10 9 9 8 6 5 2 2 3 3 3 4 3 1 1 0 -0 -0 -1 -1 -1 -1 -1 -1 -1 -1 -1 -1 -1 -1 -1 -1 -1 -1 -1 -1 -1 -1 -1 -2
10 11 11 10 10 10 10 9 9 10 10 9 8 7 6 4 2 2 2 2 2 3 1 1 0 -0 -0 -0 -1 -1 -1 -1 -1 -1 -1 -1 -1 -1 -1 -1 -1 -1 -1 -1 -1 -1 -2 -1 -1
11 10 10 9 8 9 10 9 9 9 8 7 7 7 7 6 5 3 2 2 3 2 1 1 0 0 -0 -0 -0 -1 -0 -1 -1 -1 -1 -1 -1 -1 -1 -1 -1 -1 -1 -1 -2 -1 -2 -1 -1
10 10 8 8 8 8 8 10 10 9 7 6 6 7 7 6 6 5 1 1 3 2 1 1 0 0 0 -0 -0 -0 -0 -0 -1 -1 -1 -1 -1 -0 -1 -1 -1 -1 -1 -1 -1 -1 -1 -1 -1
8 8 8 8 8 8 10 9 10 9 7 7 7 7 7 7 6 5 4 2 2 2 1 1 0 0 0 0 -0 -0 -1 -1 -1 -1 -1 -1 -1 -1 -0 -0 -0 -1 -1 -1 -1 -1 -1 -1 -1
7 9 8 8 8 8 9 10 10 7 7 7 7 6 6 6 6 5 5 3 1 1 1 1 1 0 0 0 -0 -0 -0 -1 -0 -1 -1 -1 -1 -1 -1 -0 -0 -1 -1 -1 -1 -1 -1 -1 -1
8 9 11 8 7 7 8 11 8 6 7 7 6 6 6 5 5 5 4 3 1 1 1 1 0 0 0 0 0 -0 -0 -0 -0 -1 -1 -1 -1 -1 -1 -0 -0 -1 -1 -1 -0 -0 0 -0 0
9 12 10 9 7 7 8 10 7 5 6 6 6 5 5 5 4 4 4 4 3 1 1 1 1 1 0 0 -0 -0 -0 -0 -0 -1 -1 -1 -1 -1 -1 -0 -1 -1 -0 -0 -0 -0 -0 1 0
11 11 10 10 8 7 8 9 7 6 6 6 5 5 5 5 4 3 3 3 3 0 0 1 1 1 0 0 0 0 0 0 -0 -0 -0 -1 -1 -1 -1 -1 -1 -1 -0 -0 -0 0 -0 0 0
9 10 11 9 7 8 9 9 7 6 6 6 6 5 5 4 3 2 2 3 3 0 1 1 1 1 1 1 2 2 2 1 1 -0 -1 -1 -1 -1 -1 -0 -0 -1 -0 -0 -0 0 0 1 1
9 11 11 9 7 8 9 9 7 6 6 5 5 5 4 4 3 2 2 1 2 1 1 1 1 1 1 1 1 1 1 1 0 -0 -0 -1 -1 -1 -1 -1 -0 -0 0 0 0 0 1 2 2
9 11 11 11 9 8 9 11 9 7 6 5 5 4 4 4 4 3 2 2 1 1 2 2 1 1 1 0 1 1 0 1 1 1 0 -0 -1 -1 -1 -1 -0 -0 -0 1 0 0 1 2 2
12 9 10 11 12 15 9 17 10 8 8 6 6 5 4 4 3 3 2 2 2 1 1 1 1 1 1 1 1 2 2 3 2 1 0 0 -0 -0 -1 -1 -1 -0 -0 0 0 -0 0 1 2
11 8 9 10 12 13 12 15 11 8 9 7 6 5 4 4 3 3 3 2 1 1 1 1 1 1 1 1 1 2 2 1 1 1 1 0 -0 -1 -1 -1 -0 -0 -0 -0 -0 -0 1 1 3
8 9 10 10 12 18 13 13 12 10 9 7 6 5 5 4 3 3 2 2 2 1 1 1 1 2 1 1 1 2 2 2 2 2 2 1 1 0 -0 -0 -0 -0 -0 1 1 1 2 2 2
9 12 17 18 19 18 12 14 12 9 7 7 6 5 5 4 4 3 3 3 2 2 1 2 2 2 2 1 2 2 2 1 2 2 2 2 1 1 1 0 1 1 2 3 2 3 2 2 3
10 12 18 22 19 16 11 15 11 7 6 5 5 5 4 4 4 3 3 2 2 2 1 1 2 2 2 2 1 1 1 1 1 1 1 1 1 1 0 1 1 3 3 4 3 3 3 2 3
12 15 11 17 15 18 14 11 9 7 7 6 6 5 5 5 4 4 3 3 2 2 1 1 2 2 1 2 1 1 1 1 1 1 1 1 1 0 1 2 4 3 4 3 3 4 3 3 4
10 9 16 16 21 21 15 14 13 9 8 7 7 6 6 5 4 4 3 3 2 2 1 1 1 2 1 1 1 1 1 1 1 1 1 1 1 2 2 4 4 4 4 3 4 5 4 4 5
12 14 14 14 15 19 19 14 8 8 7 7 6 6 5 5 4 4 3 3 2 2 2 1 1 2 2 1 1 2 1 1 1 1 1 1 2 2 3 4 5 5 5 4 5 5 5 6 5
9 12 12 17 18 16 16 16 7 7 6 6 6 6 5 5 4 4 3 3 3 2 2 2 1 1 1 1 1 2 1 1 1 1 1 2 3 3 4 5 6 6 6 5 6 6 7 6 6